Home > Weather > Southampton > Past weeks

Flag for United Kingdom Past Weather in Southampton, England, United Kingdom — Yesterday and Last 2 Weeks

Now
57 °F

Sunny.


Feels Like: 57 °F
Forecast: 59 / 67 °F
Wind: 3 mph from North

Location: Southampton / Weather Centre

Current Time: Jul 28, 2016 at 7:49:58 AM

Latest Report: Jul 28, 2016 at 7:20 AM


Visibility: 10 mi

Pressure: 30.01 "Hg

Humidity: 77%

Dew Point: 50 °F

Location of SouthamptonLocation

Past Weather in Southampton — Graph

°F

Southampton Temperature Yesterday

Maximum temperature yesterday: 72 °F (at 4:50 PM)
Minimum temperature yesterday: 61 °F (at 5:50 AM)
Average temperature yesterday: 65 °F

High & Low Weather Summary for the Past Weeks

 TemperatureHumidityPressure
High84 °F (Jul 19, 2:20 PM)100% (Jul 14, 5:50 AM)30.36 "Hg (Jul 14, 5:50 AM)
Low46 °F (Jul 14, 5:50 AM)42% (Jul 20, 4:20 PM)29.74 "Hg (Jul 20, 6:50 AM)
Average66 °F69%30.11 "Hg
* Reported Jul 13 6:20 AM — Jul 28 6:20 AM, Southampton, Weather by CustomWeather, © 2016

Note: Actual official high and low records may vary slightly from our data, if they occured in-between our weather recording intervals... More about our weather records

Advertising

Southampton Weather History for the Previous 24 Hours

Scroll right to see more
 ConditionsComfort  
Time TempWeatherWind HumidityBarometerVisibility
6:20 AM
Thu, Jul 28
54 °FPassing clouds.3 mph88%30.01 "HgN/A
5:50 AM54 °FPassing clouds.3 mph88%30.01 "HgN/A
10:20 PM
Wed, Jul 27
63 °FPassing clouds.3 mph73%30.01 "HgN/A
9:50 PM63 °FPassing clouds.5 mph73%30.01 "HgN/A
9:20 PM64 °FPassing clouds.5 mph68%30.01 "HgN/A
8:50 PM64 °FPassing clouds.6 mph68%29.98 "HgN/A
8:20 PM66 °FPassing clouds.7 mph64%29.98 "HgN/A
7:50 PM68 °FPassing clouds.7 mph60%29.98 "HgN/A
7:20 PM70 °FScattered clouds.9 mph57%29.98 "HgN/A
6:50 PM72 °FScattered clouds.8 mph57%29.98 "HgN/A
6:20 PM72 °FScattered clouds.7 mph61%29.98 "HgN/A
5:50 PM70 °FScattered clouds.9 mph69%29.98 "HgN/A
5:20 PM72 °FScattered clouds.9 mph69%29.98 "HgN/A
4:50 PM72 °FScattered clouds.8 mph65%29.98 "HgN/A
4:20 PM70 °FScattered clouds.10 mph69%29.98 "HgN/A
3:50 PM70 °FPartly sunny.9 mph69%29.98 "HgN/A
3:20 PM70 °FPartly sunny.7 mph69%29.98 "HgN/A
2:20 PM66 °FPartly sunny.8 mph83%30.01 "HgN/A
1:50 PM66 °FLight rain. Partly sunny.5 mph78%30.01 "HgN/A
1:20 PM66 °FLight rain. Partly sunny.9 mph78%30.01 "HgN/A
12:50 PM66 °FPartly sunny.10 mph78%30.01 "HgN/A
12:20 PM66 °FPartly sunny.9 mph73%30.01 "HgN/A
11:50 AM66 °FPartly sunny.8 mph78%30.01 "HgN/A
11:20 AM64 °FPartly sunny.6 mph78%30.01 "HgN/A
10:50 AM64 °FPartly sunny.12 mph83%30.01 "HgN/A
10:20 AM63 °FPartly sunny.10 mph88%30.01 "HgN/A
9:50 AM63 °FBroken clouds.9 mph88%30.01 "HgN/A
9:20 AM61 °FBroken clouds.12 mph94%30.01 "HgN/A
8:50 AM61 °FBroken clouds.12 mph94%30.01 "HgN/A
8:20 AM61 °FDrizzle. Partly sunny.12 mph94%30.01 "Hg6 mi
7:50 AM61 °FDrizzle. Partly sunny.12 mph94%30.01 "Hg5 mi
7:20 AM61 °FBroken clouds.12 mph94%30.01 "Hg6 mi
Weather by CustomWeather, © 2016

See weather overviewHow to use our weather pages